User: anonymous   Login
Location: Unspecified
(0.0000°N, 0.0000°E)
Time: 07:07:31
(UTC+00:00)
Language:

Tiangong 1 - Orbit

View from above orbital plane
View from above orbital plane
View from above satellite
View from above satellite

Ground track
Ground track

The orbit data is extracted from the following two-line orbital elements,

1 37820U 11053A   15144.20801044  .00020311  00000-0  24249-3 0  9995
2 37820 042.7682 057.9350 0012778 229.4052 288.5383 15.60538053209575
Epoch (UTC): 24 May 2015 04:59:32
Eccentricity: 0.0012778
inclination: 42.7682°
perigee height: 377 km
apogee height: 395 km
right ascension of ascending node: 57.9350°
argument of perigee: 229.4052°
revolutions per day: 15.60538053
mean anomaly at epoch: 288.5383°
orbit number at epoch: 20957

The dashed part of the orbit path shows where the satellite is in the earth's shadow,  

DLR